Espace membre
Imprimable
Challenges > Delhalle - Seraing, 18/05/2008, BEL - Les 10 Miles de Seraing
Liste des rapports > Delhalle - 10 Miles - Classement à l'arrivée
Recherche: Page: [1]
141 Entrées
 
Les réclamations ne sont plus acceptées, les résultats sont considérés comme définitifs.
RangNrNomAgeIOCLigueEquipeRéelTempsTkmMoy.ScrPtsLocalité
1.1134VANDERBECK Yves40BELRIWARONVAU55:3755:403:28 17.3531044MALONNE
2.518PAUL Thierry40BELARCH57:0957:143:34 16.8771012HEURE EN FAMENNE
3.1529LOMBART Frederic41BELOCAN57:2657:283:35 16.8081006GEMBLOUX
4.2006DILIBERTO Antonino41BEL59:3159:353:43 16.2114963CRISNEE
5.2013LEONI Franco42BELJOGGING +1:00:071:00:123:45 16.0418949VOTTEM
6.1448HANOT Serge45BELRONVAU1:00:261:00:303:46 15.9620942LATHUY
7.1872GODFRIN Marc43BELARCH1:01:111:01:163:49 15.7621928MESNIL-ST-BLAISE
8.2045COLLOT Jo44BELANTILOB1:01:281:01:333:50 15.6924921
9.271GERLACHE Mathieu43BELRCNAMUR1:01:351:01:403:50 15.6625918DAUSSOULX
10.1175FELIERS Eddy40BELKAPUCIJN1:01:501:01:553:51 15.6029911TERVUREN
11.2017BAERT Eric45BEL1:01:541:01:583:52 15.5830909TROIS-PONTS
12.1111HELSEN Philippe46BELLE JOUR1:02:081:02:143:52 15.5232903STAVELOT
13.1650NEYMAN Eric40BEL1:03:021:03:073:56 15.3038884HERON
14.217MELIN Thierry45BELRIWA1:03:051:03:123:56 15.2840881GENVAL
15.2054LONGUEVILLE Serge44BELRCB1:03:351:03:463:58 15.1444870ETTERBEEK
16.541FILEE Eric48BELUACDILAVILE1:04:591:05:034:03 14.8550842CHATELINEAU
17.467LENAERS Charles D.49BEL1:04:591:05:044:03 14.8451842LIEGE
18.1102GOMZE Michel41BEL1:05:031:05:094:03 14.8252840ENSIVAL
19.1639DEFRAENE Patrick46FRAANTILOB1:05:231:05:274:04 14.7554833NODEBAIS
20.2303DEFLANDRE Rudy40BELSERUNNERS1:05:431:05:524:06 14.6659824
21.2246BOERO Roberto45BEL1:05:491:05:554:06 14.6560821
22.131LEMAIRE Philippe42BELRONVAU1:06:001:06:074:07 14.6162817LASNE
23.1631CADO Paul48BELFLEUFLEU1:06:051:06:124:07 14.5964814LIGNY
24.837CEUPPENS Paul47BELHAMURABI1:06:021:06:184:08 14.5766814LINT
25.2016BUCKINX Etienne45BELRFCL1:06:341:06:394:09 14.4968804HERMÉE
26.1195BARBIER Jean47BELARCHJCCS1:06:511:06:554:10 14.4370798ANDENNE
27.2011DENDAL Didier45BEL1:06:541:07:024:10 14.4174794LIÈGE
28.2267LA PAGLIA Silvano49BELFLEURUS1:07:001:07:104:11 14.3876791WANFERCÉE-BAULET
29.769LEMINEUR Vincent43BELRCNAMUR1:07:101:07:184:11 14.3578787CHAMPION
30.2282FORREST Didier46BELRCB1:07:141:07:254:12 14.3279785IXELLES
31.2003CROL Ludo41BELRCB1:07:171:07:294:12 14.3180784BRUSSEL
32.1172DIEPENDAELE Rudi45BELACLOTOTAL1:07:451:08:064:14 14.1886772LA HESTRE
33.2320MIUTON Benoit40BEL1:08:071:08:334:16 14.0988765
34.1622TUTELAIRE Marc45BELAMAY1:08:281:08:344:16 14.0889759ANTHEIT
35.2033CREMERS Jacques43BEL1:08:371:08:474:17 14.0493753ESNEUX
36.2048BASTIN Thierry41BELSERUNNER1:09:131:09:494:21 13.83101738SERAING
37.193DI BIASE Renato43BELBOUFFIOL1:09:421:09:504:21 13.83102730COUILLET
38.2028VOLON Patrick49BELFACFLEMALLE1:10:041:10:134:22 13.75106722FLÉMALLE-HAUTE
39.2311REY Philippe48BELANTILOB1:10:161:10:244:23 13.72109717OHAIN
40.1016HENRY Andre48BELTENDONS1:10:251:10:314:23 13.69110714LA HULPE
41.404TILBURGS Frank41BELAVN1:10:231:10:344:24 13.68111714MEER
42.950WIJNEN Luc47BELRIWA1:10:141:10:384:24 13.67112715LIMELETTE
43.57LUCCHESE Serge49BELAMAY1:10:401:10:484:24 13.64114707AMAY
44.1991SPLINGARD Dominique48BELACLO1:10:381:11:004:25 13.60119704HAINE-ST-PIERRE
45.553VANDAM Jean45BELANTILOB1:10:561:11:084:26 13.58120699COURT SAINT ETIENNE
46.614MASALA Vincenzo41ITAACLO1:10:541:11:154:26 13.55121698HAINE SAINT PIERRE
47.451MILLS Timothy46BELRCBEXXONMOB1:11:261:11:384:28 13.48125688RIXENSART
48.2323THIRION Marc40BELFOULEES DU PLAISIR1:11:211:11:474:28 13.45127688HUY
49.498HEYNDRICKX Jan46BELKAPUCIJN1:11:481:11:594:29 13.42129679BERTEM
50.763RYCKEBOER Marc42BELRCB1:12:071:12:254:30 13.34133672LA HULPE
51.2290BAWIN Regis40BEL1:12:041:12:304:31 13.32134672GRÂCE-HOLLOGNE
52.2268HUPPE Jean-Paul41BEL1:12:131:12:364:31 13.30136668WANZE
53.2358BOUCHAT Albert41BEL1:12:131:12:374:31 13.30137667MEUX
54.1136GAUTIER Jacques46BEL1:12:161:12:384:31 13.30138666MEUX
55.2260CLAES Richard42BEL1:12:301:12:404:31 13.29140661NANDRIN
56.2244FUNKEN Didier49BELRT BRAIVES1:12:281:12:444:32 13.28144659MOMALLE
57.353VALCKX Geert45BELKAPUCIJN1:12:281:12:454:32 13.27145658BERTEM
58.2291NATALIS Michel42BEL1:12:371:12:494:32 13.26147654TILFF
59.2240VAN MELLAERT Pierre44BEL1:12:441:12:514:32 13.26149652
60.2049BRUCCOLERI Paolo49BELSPRIMONT1:12:471:12:544:32 13.25151649NEUPRÉ
61.2022WUIDARD J.Luc46BELCOSTARDS1:12:441:13:064:33 13.21155647ALLEUR
62.2340LODEZ Celso49BELCELESTE1:12:591:13:214:34 13.17160640
63.1616SOMERS Ludo45BELHAMURABI1:13:061:13:244:34 13.16161638LINT
64.812BATISTIC Patrick44BELRONVAU1:13:311:13:464:35 13.09168627NALINNES
65.2366BADENBERG Bernard40BELLE JOUR - 1:13:201:14:024:36 13.04171627
66.2216MICHEL Jean-Marc47BEL1:13:521:14:034:37 13.04172619VISÉ
67.2225DEWART Henri49BELRFCL1:14:141:14:404:39 12.93181607
68.2337RODA Joseph44BEL1:14:271:15:004:40 12.88183603OUGREE
69.2238DAVID Jacky40BEL1:14:481:15:024:40 12.87185596FLÉMALLE
70.425MOREAU Jean-Louis48BELJCCS1:14:521:15:104:41 12.85187594TOERNICH
71.738WILLEMS Lucas47BEL1:14:531:15:134:41 12.84188593SAINT MARTIN
72.2271DIAZ Carlos42BEL1:14:531:15:144:41 12.84189592ANS
73.1006PIRSON Georges45BELHRC1:15:051:15:254:42 12.80191588LIBRAMONT
74.2252BRULS Etienne41LUX1:15:141:15:274:42 12.80192585MONDORF-LES-BAINS
75.2239DIRCKX Pascal46BEL1:15:121:15:274:42 12.80193585
76.1734SIOLI Serge49BELESM1:15:191:15:404:43 12.76196581MARCHIENNE-AU-PONT
77.1262LAMBERT Pierre46BELAMAY1:15:511:15:594:44 12.71202569AMAY
78.735JORDANT Benoit46BELARCHJOGGPLUS1:15:381:16:084:44 12.68204571YVOIR
79.1118TRIBOLET Jean-Marc46BELARCH1:16:061:16:214:45 12.65208561SOVET
80.642VERMEIR Gustaaf45BEL1:16:291:16:384:46 12.60213553AARSCHOT
81.2041COUPLET Pierre47BELRCA SPALE JOUR1:16:091:16:424:46 12.59215556VERVIERS
82.2365THYS Leo43BEL1:16:541:16:544:47 12.56220542
83.547BOVY Marc48BELSPA1:16:411:16:554:47 12.56221544CRISNEE
84.2352MOREAU Philippe40BEL1:17:021:17:144:48 12.50228535
85.2051HANQUET Eddy46BELVERVIERS1:17:031:17:244:49 12.48229534ANDRIMONT
86.1661COOREMANS Guy42BELRCNAMUR1:17:051:17:254:49 12.47231531SOYE
87.2280HEUSSCHEN Dominique44BEL1:17:081:17:304:49 12.46233530HOUSSE
88.673CAMPION Sylvain45BEL1:17:181:17:424:50 12.43238524DIEPENBEEK
89.2050DESIR Quentin44BELESNEUX RT1:17:301:17:494:51 12.41241519
90.2019FAFCHAMPS Eudore48BELRFCLHERSTAL1:17:441:17:524:51 12.40243514VOTTEM
91.1287DEWASSEIGE Jean43BEL1:17:431:18:064:52 12.36245513BRUXELLES
92.2347DE LAMOTTE Bernard44BEL1:18:201:18:414:54 12.27252500MARCHIN
93.2243MAURISSEN Peter41BEL1:18:081:18:454:54 12.26254501HASSELT
94.2027PONCIN Christian49BEL1:18:261:18:564:55 12.23259493TILFF
95.2046MASY Benoit41BELSPRIMONT1:18:421:18:594:55 12.23260489EMBOURG
96.2010MENNICKEN Roger48BEL1:18:481:19:014:55 12.22261487EYNATTEN
97.1654BRYNART Alain48BELACLO1:18:371:19:014:55 12.22262489HOUDENG-AIMERIES
98.1260VAN BERGEN Alain47BELFLEUFLEU ATHL1:18:511:19:074:55 12.21265484AISEAU
99.2002ANDRE Alain48BELSERUNNERS1:18:581:19:124:56 12.19268480SERAING
100.2275TEMPELS Alain47BEL1:18:591:19:204:56 12.17271478
101.1119HAYOT Didier41BELARCH1:19:291:20:044:59 12.06280464SORINNES
102.918DINSART Dominique46BEL1:19:571:20:124:59 12.04282457
103.2360MOKHLES Fathi49BEL1:19:201:20:235:00 12.01283465NEUVILLE-EN-CONDROZ
104.1182GRANDMONT Andre47BELARCH1:20:141:20:275:00 12.00287449DINANT
105.888RUBINO Michel48BELUACRRTC1:19:501:20:395:01 11.97293451CHATELET
106.1551SAUCIN Luc47BELRRTC1:19:521:20:405:01 11.97294450CHATELET
107.919ABRASSART Christian46BELBIN1:20:071:20:415:01 11.97295445JODOIGNE
108.2254WILMET Benoit43BEL1:20:451:21:085:03 11.90299434
109.2218AZZOLINI Philippe41BEL1:20:361:21:135:03 11.89300435
110.2363REPPEN Nicolas43BEL1:21:001:21:335:05 11.84306426HACCOURT
111.687KINARD Eric48BEL1:21:061:21:385:05 11.83308423CINEY
112.850LENOIR Gerard48BELTORTUES1:21:111:21:405:05 11.82309422GONDREGNIES
113.1259HAUTEKEER Jean Paul43BEL1:21:351:22:065:07 11.76315412VERLAINE
114.1095GEERAERTS Jos48BELCSFMYSTERE1:21:431:22:075:07 11.76316410BUIZINGEN
115.1141EVRARD Pierre47BEL1:21:421:22:125:07 11.75319408MALONNE
116.2306PARMENTIER Bernard40BELOLNE1:22:471:23:015:10 11.63326389SOUMAGNE
117.258KLEKER Yves46BELACD1:23:091:23:355:12 11.55330381CHÂTILLON
118.2296KAES Geert44BEL1:23:361:23:475:13 11.53333373
119.1340MALENGREAUX Patrice46BELTORTUES1:24:041:24:245:15 11.44337364BRAY
120.1499GEUSKENS Nicolas40BEL1:24:001:24:275:15 11.44338365WAVRE
121.192GEUSKENS J.Marc44BEL1:23:591:24:285:15 11.43339364BRUXELLES
122.2236CASTIGLIONE Lillo48BEL1:24:501:25:035:18 11.35344349
123.2353THEUNISSEN Patrice42BEL1:24:381:25:205:19 11.32346351
124.1912COLSON Pascal46BELACLO1:24:521:25:215:19 11.31348346MANAGE
125.2287GAILLARD Eric40BEL1:25:121:25:325:19 11.29350341
126.843DESENFANTS Bernhard49BELSCBUTG1:25:481:26:255:23 11.17361325ELSENBORN
127.1590POPPE Christian49BEL1:25:561:26:325:23 11.16362323MARCHE-EN-FAMENNE
128.229HENRY Stephane48BELJCCS1:26:201:26:395:24 11.14365316GEDINNE
129.2235JIMENEZ Jorge40BEL1:26:031:26:435:24 11.14366319
130.2312GONFALONIERI Robi44BEL1:26:371:27:015:25 11.10371308
131.2329OOLMANN Patrick45BELRUNNERS1:26:481:27:105:25 11.08373304
132.2362KAZMIERCZAK Eric48BELAMC1:26:411:27:265:26 11.04375305DOLEMBREUX
133.2289VAN ROOSBROECK Jean-Marie46BEL1:27:151:27:315:27 11.03377296
134.2044DELZANDRE Christian42BELANTILOB1:27:181:27:515:28 10.99381293HOUTAIN LE VAL
135.2055BERNARD Eric47BEL1:27:261:28:095:29 10.96383290LIEGE
136.2298JOCQUEAU Pierre42BEL1:29:371:29:495:35 10.75399252
137.416DE WILDE Marc40BELANTILOB1:29:561:30:145:37 10.70403245
138.2317BAGGETTO Luc45BEL1:30:101:30:235:37 10.68407240
139.2304CAPITAINE Jean-Marc49BEL1:31:441:31:575:43 10.50414216
140.1091HALLEMANS Jean-Pierre45BEL1:33:041:33:275:49 10.33422195SCHEPDAAL
141.2324MAMONE Santo40BEL1:33:561:34:285:53 10.22426182CHAPELLE
DNF: abandon; DSQ: disqualifié; Vitesse en km/h
Page: [1]